CW8053 Weather Reports


time (UTC)temp
F
wind
direction
speed
knots
gust
knots
rain 1hr
in
rain 24hr
in
rain mn
in
humidity
%
barometer
mb
20260506044436 56 12 0.9 2.6 0.06 1.24 0.63 94 1007.9
20260506043535 56 0 0.0 0.0 0.06 1.31 0.63 94 1008.2
20260506042635 56 357 1.7 2.6 0.06 1.39 0.63 93 1008.3
20260506041756 56 355 3.5 6.1 0.06 1.44 0.62 93 1008.5
20260506040834 56 10 0.9 0.9 0.03 1.49 0.60 93 1009.0
20260506035935 56 25 0.9 0.9 0.02 1.57 0.58 93 1008.8
20260506035355 56 0 0.0 0.0 0.01 1.57 0.57 93 1008.9
20260506034435 56 15 2.6 4.3 0.01 1.61 0.57 93 1008.7
20260506033555 55 0 0.0 0.0 0.02 1.65 0.57 93 1008.5
20260506032634 55 303 0.0 0.9 0.02 1.67 0.57 94 1008.5
20260506031735 55 129 1.7 3.5 0.03 1.71 0.57 94 1008.4
20260506030835 55 339 2.6 8.7 0.06 1.76 0.57 94 1008.6
20260506025935 55 288 0.9 1.7 0.07 1.77 0.57 94 1008.8
20260506025355 55 342 2.6 6.1 0.09 1.78 0.57 95 1008.9
20260506024455 55 256 0.9 1.7 0.13 1.79 0.56 95 1009.3
20260506023534 55 7 1.7 4.3 0.16 1.80 0.55 95 1009.6
20260506022634 55 0 0.0 0.0 0.21 1.82 0.55 95 1009.7
20260506021738 55 338 0.9 4.3 0.25 1.83 0.54 94 1009.8
20260506020836 55 344 0.9 1.7 0.35 1.82 0.52 94 1009.9
20260506015935 56 342 0.9 3.5 0.35 1.82 0.50 93 1010.0
20260506015356 56 360 1.7 7.0 0.33 1.80 0.47 93 1010.0
20260506014434 57 339 2.6 7.8 0.30 1.77 0.43 93 1010.4
20260506013535 58 233 0.9 3.5 0.27 1.74 0.39 94 1010.6
20260506012635 58 197 1.7 1.7 0.21 1.69 0.34 94 1010.8
20260506011734 58 158 2.6 3.5 0.17 1.65 0.28 93 1010.5
20260506010834 58 7 0.0 0.9 0.05 1.54 0.16 93 1010.1
20260506005956 58 0 0.0 0.0 0.04 1.54 0.15 93 1010.2
20260506005334 58 0 0.0 0.0 0.03 1.54 0.14 93 1010.1
20260506004435 59 63 0.0 0.9 0.02 1.55 0.13 93 1010.3
20260506003542 59 199 1.7 3.5 0.02 1.54 0.13 93 1010.5
20260506002635 59 0 0.0 0.0 0.02 1.54 0.13 93 1010.3
20260506001736 59 0 0.0 0.0 0.01 1.54 0.12 92 1010.1
20260506000856 59 0 0.0 0.0 0.00 1.53 0.11 91 1010.3
20260505235935 60 0 0.0 0.0 0.00 1.53 0.11 91 1010.4
20260505235334 60 334 0.9 1.7 0.00 1.53 0.11 90 1010.5
20260505234435 60 0 0.0 0.0 0.00 1.53 0.11 90 1010.7
20260505233556 60 123 0.0 0.9 0.00 1.53 0.11 90 1011.1
20260505232635 60 0 0.0 0.0 0.00 1.53 0.11 89 1011.1
20260505231736 60 78 0.0 0.9 0.04 1.53 0.11 89 1011.4
20260505230834 60 205 0.0 0.9 0.11 1.53 0.11 88 1011.5
20260505225934 60 137 0.9 1.7 0.11 1.53 0.11 88 1011.6
20260505225334 60 199 0.9 1.7 0.11 1.53 0.11 87 1011.5
20260505224435 60 233 0.9 2.6 0.11 1.53 0.11 87 1011.6
20260505223534 61 177 2.6 6.1 0.11 1.53 0.11 86 1011.8
20260505222638 61 214 1.7 4.3 0.11 1.53 0.11 85 1011.8
20260505221734 61 223 1.7 3.5 0.07 1.49 0.07 85 1012.0
20260505220834 61 0 0.0 0.0 0.00 1.42 0.00 83 1011.9
20260505215956 61 0 0.0 0.0 0.00 1.42 0.00 83 1011.9
20260505215337 61 113 0.9 0.9 0.00 1.42 1.42 83 1011.9
20260505214435 61 0 0.0 0.0 0.00 1.42 1.42 83 1011.9
20260505213534 61 216 0.9 1.7 0.00 1.42 1.42 82 1012.2
20260505212657 61 130 0.0 0.9 0.00 1.42 1.42 82 1012.3
20260505211735 61 124 1.7 2.6 0.00 1.42 1.42 82 1012.3
20260505210838 61 135 0.9 0.9 0.00 1.42 1.42 83 1012.3
20260505205934 61 61 0.0 0.9 0.00 1.42 1.42 83 1012.5
20260505205355 61 132 0.9 1.7 0.00 1.42 1.42 83 1012.4
20260505204435 61 0 0.0 0.0 0.00 1.42 1.42 84 1012.4
20260505203535 61 14 0.0 0.9 0.00 1.42 1.42 84 1012.6
20260505202636 61 209 0.9 1.7 0.00 1.42 1.42 84 1012.7
20260505201735 61 206 0.0 0.9 0.00 1.42 1.42 84 1012.6
20260505200842 61 233 0.9 1.7 0.00 1.42 1.42 84 1012.5
20260505195935 61 247 0.0 1.7 0.00 1.42 1.42 84 1012.6
20260505195334 61 211 0.0 0.9 0.00 1.42 1.42 84 1012.7
20260505194435 61 214 2.6 4.3 0.00 1.42 1.42 84 1012.7
20260505193538 61 213 2.6 3.5 0.00 1.42 1.42 84 1012.5
20260505192634 61 202 0.9 1.7 0.00 1.42 1.42 84 1012.5
20260505191735 61 223 0.9 2.6 0.00 1.42 1.42 84 1012.5
20260505190836 61 0 0.0 0.0 0.00 1.42 1.42 84 1012.4
20260505185935 61 0 0.0 0.0 0.00 1.42 1.42 84 1012.3
20260505185338 61 44 0.0 0.9 0.00 1.42 1.42 83 1012.2
20260505184434 61 0 0.0 0.0 0.00 1.42 1.42 83 1012.2
20260505183535 61 100 0.0 0.9 0.00 1.42 1.42 83 1012.3
20260505182634 61 218 0.9 2.6 0.00 1.42 1.42 83 1012.4
20260505181734 62 147 2.6 4.3 0.00 1.42 1.42 84 1012.4
20260505180855 62 320 0.0 0.9 0.00 1.42 1.42 83 1012.3
20260505175956 62 227 1.7 4.3 0.00 1.42 1.42 83 1012.3
20260505175334 62 216 2.6 3.5 0.00 1.42 1.42 83 1012.3
20260505174437 62 230 0.0 0.9 0.00 1.42 1.42 83 1012.3
20260505173534 62 0 0.0 0.0 0.00 1.42 1.42 83 1012.2
20260505172634 62 221 0.0 1.7 0.00 1.42 1.42 83 1012.2
20260505171737 62 222 1.7 2.6 0.00 1.42 1.42 83 1012.3
20260505170835 62 196 1.7 2.6 0.00 1.42 1.42 83 1012.2
20260505165955 63 216 1.7 5.2 0.00 1.42 1.42 82 1012.2
20260505165355 63 221 2.6 5.2 0.00 1.42 1.42 82 1012.3
20260505164434 64 245 1.7 4.3 0.00 1.42 1.42 80 1012.3
20260505163555 64 227 2.6 4.3 0.00 1.42 1.42 81 1012.2
20260505162634 64 262 0.9 1.7 0.00 1.42 1.42 80 1012.2
20260505161756 65 237 1.7 3.5 0.00 1.42 1.42 79 1012.2
20260505160841 65 201 2.6 4.3 0.00 1.42 1.42 79 1012.2
20260505152636 63 190 1.7 3.5 0.00 1.42 1.42 80 1012.5
20260505151756 63 193 0.9 1.7 0.00 1.42 1.42 80 1012.6
20260505150835 64 280 1.7 3.5 0.00 1.42 1.42 79 1012.5
20260505124435 65 288 0.9 1.7 0.00 1.42 1.42 80 1012.5
20260505123534 64 337 0.0 1.7 0.00 1.42 1.42 78 1012.7
20260505122637 64 0 0.0 0.0 0.00 1.42 1.42 78 1012.7
20260505121734 64 0 0.0 0.0 0.00 1.42 1.42 79 1012.7
20260505120834 64 315 0.9 1.7 0.00 1.42 1.42 80 1012.7
20260505115936 64 306 0.9 3.5 0.00 1.42 1.42 80 1012.7
20260505115334 64 334 0.9 2.6 0.00 1.42 1.42 79 1012.7
20260505114435 63 321 0.9 1.7 0.00 1.42 1.42 80 1012.7
20260505113535 62 318 0.9 2.6 0.00 1.42 1.42 81 1012.7
20260505112634 61 323 0.9 1.7 0.00 1.42 1.42 81 1012.8
20260505111734 61 318 0.0 0.9 0.00 1.42 1.42 81 1012.8
20260505110837 61 291 0.9 3.5 0.00 1.42 1.42 80 1012.9
20260505101736 57 348 1.7 3.5 0.01 1.42 1.42 88 1012.9
20260505100835 58 1 2.6 4.3 0.01 1.42 1.42 90 1012.9
20260505095935 58 322 1.7 5.2 0.01 1.42 1.42 91 1012.9
20260505095356 57 347 0.9 2.6 0.01 1.42 1.42 91 1012.9
20260505094449 57 343 3.5 7.0 0.01 1.42 1.42 88 1012.9
20260505093534 56 341 2.6 5.2 0.00 1.41 1.41 87 1012.8
20260505092634 57 340 1.7 5.2 0.00 1.41 1.41 87 1012.7
20260505091734 57 20 0.9 6.1 0.00 1.41 1.41 88 1012.5
20260505090834 57 5 0.0 2.6 0.00 1.41 1.41 87 1012.5
20260505085934 57 350 1.7 3.5 0.00 1.41 1.41 88 1012.6
20260505085334 57 359 2.6 7.8 0.00 1.41 1.41 89 1012.5
20260505084456 57 333 0.9 1.7 0.00 1.41 1.41 90 1012.5
20260505083534 57 324 1.7 3.5 0.00 1.41 1.41 92 1012.3
20260505082634 57 335 0.9 3.5 0.00 1.41 1.41 94 1012.3
20260505081734 57 332 1.7 5.2 0.00 1.41 1.41 95 1012.4
20260505080834 57 359 0.9 4.3 0.00 1.41 1.41 96 1012.3
20260505075956 57 352 0.9 1.7 0.00 1.41 1.41 96 1012.1
20260505075355 56 312 0.9 2.6 0.00 1.41 1.41 96 1012.0
20260505074517 56 330 0.9 3.5 0.01 1.41 1.41 96 1012.2
20260505073535 56 315 0.9 5.2 0.01 1.41 1.41 96 1012.3
20260505072634 56 15 0.9 2.6 0.02 1.41 1.41 96 1012.4
20260505071755 56 326 0.9 3.5 0.06 1.41 1.41 96 1012.4
20260505070855 55 345 1.7 5.2 0.11 1.41 1.41 96 1012.3
20260505065935 54 340 1.7 3.5 0.13 1.41 1.41 96 1012.2
20260505065334 54 333 0.9 2.6 0.16 1.41 1.41 96 1012.3
20260505064437 54 333 0.9 2.6 0.20 1.40 1.40 95 1012.3
20260505063534 54 315 2.6 3.5 0.30 1.40 1.40 95 1012.1
20260505062634 54 342 2.6 7.0 0.39 1.39 1.39 95 1011.6
20260505061734 54 25 1.7 2.6 0.43 1.35 1.35 95 1011.5
20260505060835 54 338 2.6 10.4 0.43 1.30 1.30 95 1011.3
20260505055934 54 305 2.6 5.2 0.43 1.28 1.28 95 1011.0
20260505055334 54 302 4.3 8.7 0.41 1.25 1.25 95 1010.9
20260505054442 54 338 2.6 10.4 0.39 1.20 1.20 95 1011.2
20260505053536 54 344 1.7 4.3 0.36 1.10 1.10 95 1012.3
20260505052634 54 318 1.7 3.5 0.35 1.01 1.01 95 1012.1
20260505051734 54 355 2.6 11.3 0.31 0.91 0.91 95 1011.8
20260505050834 54 326 1.7 4.3 0.35 0.87 0.87 95 1011.8